User: anonymous   Login
Location: Bergnerzell
(49.1816°N, 10.2565°E)
Time: 11:05:43
(UTC+00:00)
Language:

ALOS - Orbit

View from above orbital plane
View from above orbital plane
View from above satellite
View from above satellite

Ground track
Ground track

The orbit data is extracted from the following two-line orbital elements,

1 28931U 06002A   24203.83177667  .00003769  00000-0  69575-3 0  9997
2 28931  98.0379 156.1582 0002336  68.8314 291.3139 14.66030144986058
Epoch (UTC): 21 July 2024 19:57:45
Eccentricity: 0.0002336
inclination: 98.0379°
perigee height: 672 km
apogee height: 675 km
right ascension of ascending node: 156.1582°
argument of perigee: 68.8314°
revolutions per day: 14.66030144
mean anomaly at epoch: 291.3139°
orbit number at epoch: 98605

The dashed part of the orbit path shows where the satellite is in the earth's shadow,  

DLR